カタログに戻る

COSMOS 2251 DEB

運用中LEO
NORAD 34474·DEBRIS·🇷🇺 Russia

打ち上げ Jun 16, 1993 から Plesetsk Cosmodrome

Loading…

次のパス (今後24時間)

TLE

最新Source: Space-Track

元期: Sep 14, 2026, 07:14 UTC

1 34474U 93036TT  26257.30190699  .00001145  00000-0  57235-3 0  9998
2 34474  74.0751 204.3308 0201257 212.9623 309.1390 14.07915328893858

AllMySatでCOSMOS 2251 DEBをリアルタイム追跡

Download on the App Store